Airfield :
LOGIN :

Register | Disclaimer

   EN    FR    IT 

 










Legend :    VFR   Marginal VFR   IFR   Intensive IFR   Very Intensive IFR
Visi :
Ceiling :
>= 8 km
>= 3000ft
5 to 8 km
1000 to 3000 ft
1500m to 5 km
500 to 1000 ft
800 to 1500m
200 to 500 ft
< 800m
< 200 ft
Symbols :   Thunderstorms  Fog  Heavy snow  Heavy precipitations  Wind > 20 kt
SIGMETs :     Misc.  Thunderstorms  Icing  Turbulence  Mountain Waves  Volcanic Ashes






- Airport Elevation : 319 ft


EIME - Casement Air Base

CURRENT METAR :
  • 240600Z 22023G33KT 9999 -RA FEW010 SCT019 BKN030 11/10 Q0999

EXPIRED METARs :
  • 240500Z 22020KT 8000 RA FEW010 SCT030 BKN060 10/10 Q1000
  • 240400Z VRB02KT 8000 RA FEW010 SCT015 BKN019 06/06 Q1003

TAF TAF EIME
Valid from the 24 at 06:00 until the 24 at 15:00 UTC


240500Z 2406/2415 22020KT 9999 FEW010 BKN030
TEMPO 2406/2412 24025G35KT
TEMPO 2406/2409 4000 RA BKN009
PROB40
TEMPO 2410/2413 25025G45KT
BECMG 2412/2414 27018KT
TEMPO 2412/2415 28020G30KT



MET'MAP, your aeronautical weather chart ! - Copyright ORBIFLY December 2007 - Disclaimer

ORBIFLY MET'MAP TEAM :

Programming & Development : Alexandra Zaïnal
Concept & original design : Baudouin d'Aumeries
Assistance for programming : Marc-Olivier Méhu
Technical & hardware support : Manuel Goepfert

Contact : metmap@orbifly.com




SOURCES & CREDITS :

   NOAA